Fairbanks Ft. Wainwright, AK

12:38 AM AKST on December 18, 2017 (GMT -0900)
Ladd Army Air Field

Weather History for PAFB - March, 2013

Change the Weather History Date:

Saturday, March 23, 2013

  Actual Average Record
Temperature  
Mean Temperature 5 °F -  
Max Temperature 21 °F 22 °F 50 °F (1998)
Min Temperature -11 °F 0 °F -16 °F (2012)
Degree Days  
Heating Degree Days 60    
Moisture  
Dew Point -4 °F    
Average Humidity 69    
Maximum Humidity 86    
Minimum Humidity 45    
Precipitation  
Precipitation 0.01 in - - ()
Sea Level Pressure  
Sea Level Pressure 29.97 in    
Wind  
Wind Speed 12 mph (WSW)    
Max Wind Speed 20 mph    
Max Gust Speed -    
Visibility 6 miles    
Events Snow    
Averages and records for this station are not official NWS values.
T = Trace of Precipitation, MM = Missing Value Source: NWS Daily Summary

Daily Weather History Graph

Daily Weather History Graph

Search for Another Location

Airport or City:

Trip Planner

Search our weather history database for the weather conditions in past years. The results will help you decide how hot, cold, wet, or windy it might be!

Date:

Astronomy

Mar. 23, 2013 Rise Set
Actual Time 7:38 AM AKDT 8:17 PM AKDT
Civil Twilight 6:48 AM AKDT 9:06 PM AKDT
Nautical Twilight 5:47 AM AKDT 10:08 PM AKDT
Astronomical Twilight 4:34 AM AKDT 11:23 PM AKDT
Moon 3:49 PM AKDT (3/23) 6:31 AM AKDT (3/23)
Length of Visible Light 14h 17m
Length of Day
12h 38m
Waxing Gibbous, 86% of the Moon is Illuminated
Mar 23
Waxing Gibbous
Mar 27
Full
Apr 2
Last Quarter
Apr 10
New
Apr 18
First Quarter

Hourly Weather History & Observations

Time (AKDT) Temp. Windchill Dew Point Humidity Pressure Visibility Wind Dir Wind Speed Gust Speed Precip Events Conditions
12:43 AM 21.2 °F 7.8 °F 17.6 °F 86% 29.71 in 1.8 mi West 15.0 mph - 0.00 in Snow Light Snow
12:54 AM 19.4 °F 5.0 °F 15.8 °F 86% 29.72 in 1.0 mi WSW 16.1 mph - 0.00 in Snow Light Snow
12:56 AM 19.9 °F 5.2 °F 16.0 °F 85% 29.75 in 1.0 mi WSW 17.3 mph - 0.00 in Snow Light Snow
1:48 AM 15.8 °F -0.2 °F 10.4 °F 79% 29.75 in 1.5 mi West 17.3 mph - 0.00 in Snow Light Snow
1:56 AM 16.0 °F 0.6 °F 10.0 °F 77% 29.79 in 1.2 mi West 16.1 mph - 0.00 in Snow Light Snow
2:24 AM 15.8 °F 0.9 °F 8.6 °F 73% 29.78 in 2.5 mi West 15.0 mph - 0.00 in Snow Light Snow
2:54 AM 12.2 °F -5.8 °F 6.8 °F 79% 29.79 in 1.2 mi WSW 19.6 mph - 0.00 in Snow Light Snow
2:56 AM 12.0 °F -5.6 °F 6.1 °F 77% 29.82 in 1.2 mi WSW 18.4 mph - 0.00 in Snow Light Snow
3:56 AM 10.0 °F -7.1 °F 3.9 °F 76% 29.85 in 1.5 mi WSW 16.1 mph - 0.00 in Snow Light Snow
4:56 AM 8.1 °F -7.7 °F 3.0 °F 80% 29.90 in 1.2 mi WSW 12.7 mph - 0.00 in Snow Light Snow
5:56 AM 5.0 °F -10.8 °F -0.0 °F 80% 29.93 in 1.8 mi West 11.5 mph - 0.01 in Snow Light Snow
6:30 AM 3.2 °F -10.3 °F -2.2 °F 78% 29.92 in 2.5 mi West 8.1 mph - 0.00 in Snow Light Snow
6:44 AM 3.2 °F -12.2 °F -2.2 °F 78% 29.93 in 2.5 mi West 10.4 mph - 0.00 in Snow Light Snow
6:52 AM 3.2 °F -13.1 °F -2.2 °F 78% 29.93 in - West 11.5 mph - 0.00 in Snow Light Snow
6:54 AM 3.2 °F -13.9 °F -2.2 °F 78% 29.93 in 1.8 mi WSW 12.7 mph - 0.00 in Snow Light Snow
6:56 AM 3.0 °F -13.3 °F -2.9 °F 76% 29.96 in 1.8 mi West 11.5 mph - 0.00 in Snow Light Snow
7:22 AM 1.4 °F -15.3 °F -5.8 °F 72% 29.95 in - West 11.5 mph - 0.00 in Snow Light Snow
7:37 AM 1.4 °F -15.3 °F -5.8 °F 72% 29.96 in 4.0 mi West 11.5 mph - 0.00 in Snow Light Snow
7:56 AM -0.0 °F -15.3 °F -7.1 °F 72% 30.00 in 7.0 mi SW 9.2 mph - 0.00 in   Overcast
8:56 AM -2.0 °F -15.4 °F -11.0 °F 66% 30.03 in 10.0 mi WSW 6.9 mph - N/A   Overcast
9:56 AM -2.0 °F -18.7 °F -13.0 °F 60% 30.06 in 10.0 mi West 10.4 mph - N/A   Overcast
10:56 AM -2.9 °F -16.5 °F -14.1 °F 59% 30.08 in 10.0 mi WSW 6.9 mph - N/A   Overcast
11:56 AM -2.0 °F -17.7 °F -14.1 °F 57% 30.09 in 10.0 mi SW 9.2 mph - N/A   Mostly Cloudy
12:56 PM -0.9 °F -12.7 °F -14.1 °F 54% 30.10 in 10.0 mi SW 5.8 mph - N/A   Clear
1:56 PM -0.0 °F -7.9 °F -11.9 °F 57% 30.10 in 10.0 mi Variable 3.5 mph - N/A   Clear
2:56 PM 1.0 °F -8.7 °F -14.1 °F 49% 30.11 in 10.0 mi SW 4.6 mph - N/A   Clear
3:56 PM 3.0 °F -9.3 °F -14.1 °F 45% 30.10 in 10.0 mi SSW 6.9 mph - N/A   Clear
4:56 PM 3.9 °F -9.4 °F -13.0 °F 46% 30.10 in 10.0 mi SSW 8.1 mph - N/A   Clear
5:56 PM 3.0 °F -6.4 °F -11.9 °F 50% 30.10 in 10.0 mi South 4.6 mph - N/A   Clear
6:56 PM 3.0 °F -4.4 °F -11.0 °F 52% 30.10 in 10.0 mi South 3.5 mph - N/A   Clear
7:56 PM -0.9 °F - -11.9 °F 60% 30.10 in 10.0 mi Calm Calm - N/A   Clear
8:56 PM -4.0 °F -12.4 °F -11.9 °F 69% 30.11 in 10.0 mi NE 3.5 mph - N/A   Clear
9:56 PM -11.0 °F - -16.1 °F 78% 30.11 in 10.0 mi Calm Calm - N/A   Clear
10:56 PM -9.0 °F -23.8 °F -16.1 °F 71% 30.10 in 10.0 mi East 6.9 mph - N/A   Clear
11:56 PM -9.0 °F -20.4 °F -16.1 °F 71% 30.10 in 10.0 mi East 4.6 mph - N/A   Clear